STARLINK-32847, 62811

Orbit data source: Space-Track

STARLINK-32847, 62811 is a payload satellite owned by SpaceX/Seattle (US) in LEO that was launched on Fri, 24 Jan 2025 UTC via an FALCON 9 launch vehicle from the Air Force Western Test Range (AFWTR). Payload-class satellites include a variety of spacecraft equipped with specific instruments for various scientific and technological missions. These include communications satellites like Starlink; space stations such as the ISS; scientific satellites like the Hubble; Earth observation satellites from companies like Planet Labs, Umbra, and HawkEye 360; GPS; miniature CubeSats for education and research; and military/defense satellites.

Loading next visibility...
Identifier
62811, 2025-018F
Orbit
LEO
Country
Flag of USUS
Related business
Manufacturer
SpaceX/Seattle
Mission
Operational Commercial Communications
Bus & Motor
STARLINK V2M, Unknown motor
Mass
730 kg wet, ~700 kg dry
Launch date (UTC)
2025-01-24 (2 years ago)
Launch vehicle
FALCON 9
Launch site
Air Force Western Test Range (AFWTR)
Object type
Payload
Rocket body
Debris
Shape & HBR
Box + 2 Pan, 17.7 m
Radar Cross Section
33.884 m², Large (>1 m²)

Expand to show TLE details & history
Last TLE update: 18 hours ago

TLE from 18 hours ago
0 STARLINK-32847
1 62811U 25018F   26237.40843541  .00016958  00000-0  58362-3 0  9999
2 62811  53.1571 245.6554 0001106  90.1430 269.9697 15.30186129 89009
Epoch: 2026-08-25T09:48Z
TLE epoch observation values (Epoch: 2026-08-25T09:48:08.819Z)
Latitude
-0.00005°
Longitude
124.9424°
Altitude
476.156 km
Speed
7.629 km/s
True Right ascension
16h 22m 37s
True Declination
0° 00' 00"
Sunlit
Object was in daylight at epoch
Visualization orbit readout
Latitude
Unknown
Longitude
Unknown
Altitude
Unknown
Speed
Unknown
Apparent Right ascension
Unknown
Apparent Declination
Unknown
Sunlit
N/A
Visualization observer readout
Local Sidereal Time
19:06:11
Azimuth
Unknown
Elevation
Unknown
Doppler factor
Unknown
Orbital elements
Apogee altitude
476.271 km
Perigee altitude
474.755 km
Semi-major axis
6,853.65 km
Eccentricity
0.00011
Inclination
53.1571°
RAAN
245.6554°
Arg. of periapsis
90.143°
True anomaly
269.95703°
Mean anomaly
269.9697°
Eccentric anomaly
269.96336°
Mean motion
3.82525 °/min
Orbital period
94.11 mins
BSTAR
0.00058362
Loading maneuver chart data...
Computing Atmospheric mass density...
Loading historical data...
Loading historical data...
Loading historical data...
Loading historical data...
Loading historical data...
Loading historical data...
Loading historical data...

Documentation

Showing up to 5 results
|